Horseshoe Bay, TX

5:14 PM MDT on October 22, 2017 (GMT -0600)
Horseshoe Bay

Weather History for KDZB - August, 2013

Change the Weather History Date:

Sunday, August 4, 2013

  Actual Average (KBMQ) Record (KBMQ)
Temperature  
Mean Temperature 86 °F -  
Max Temperature 97 °F 93 °F 105 °F (2011)
Min Temperature 74 °F 71 °F 71 °F (2001)
Cooling Degree Days 20    
Growing Degree Days 36 (Base 50)    
Moisture  
Dew Point 66 °F    
Average Humidity 53    
Maximum Humidity 84    
Minimum Humidity 31    
Precipitation  
Precipitation 0.00 in - - ()
Sea Level Pressure  
Sea Level Pressure 30.02 in    
Wind  
Wind Speed 7 mph (SSE)    
Max Wind Speed 17 mph    
Max Gust Speed 23 mph    
Visibility 10 miles    
Events      
Averages and records for this station are not official NWS values.
T = Trace of Precipitation, MM = Missing Value Source: NWS Daily Summary

Daily Weather History Graph

Daily Weather History Graph

Search for Another Location

Airport or City:

Trip Planner

Search our weather history database for the weather conditions in past years. The results will help you decide how hot, cold, wet, or windy it might be!

Date:

Astronomy

Aug. 04, 2013 Rise Set
Actual Time 5:53 AM MDT 7:25 PM MDT
Civil Twilight 5:27 AM MDT 7:50 PM MDT
Nautical Twilight 4:56 AM MDT 8:21 PM MDT
Astronomical Twilight 4:24 AM MDT 8:54 PM MDT
Moon 3:57 AM MDT (8/4) 5:49 PM MDT (8/4)
Length of Visible Light 14h 23m
Length of Day
13h 31m
Waning Crescent, 4% of the Moon is Illuminated
Aug 4
Waning Crescent
Aug 6
New
Aug 14
First Quarter
Aug 20
Full
Aug 28
Last Quarter

Hourly Weather History & Observations

Time (MDT) Temp. Heat Index Dew Point Humidity Pressure Visibility Wind Dir Wind Speed Gust Speed Precip Events Conditions
12:15 AM 82.6 °F 85.1 °F 67.1 °F 59% 30.04 in 10.0 mi South 13.8 mph 20.7 mph N/A   Clear
12:35 AM 82.0 °F 84.7 °F 67.5 °F 61% 30.04 in 10.0 mi South 9.2 mph 16.1 mph N/A   Clear
12:55 AM 81.1 °F 83.9 °F 68.0 °F 64% 30.04 in 10.0 mi SSE 6.9 mph - N/A   Clear
1:15 AM 80.4 °F 83.0 °F 67.6 °F 65% 30.04 in 10.0 mi South 6.9 mph - N/A   Clear
1:35 AM 79.9 °F - 68.0 °F 67% 30.04 in 10.0 mi South 5.8 mph - N/A   Clear
1:55 AM 79.2 °F - 68.0 °F 69% 30.05 in 10.0 mi SSE 6.9 mph - N/A   Clear
2:15 AM 78.8 °F - 68.2 °F 70% 30.05 in 10.0 mi SSE 3.5 mph - N/A   Clear
2:35 AM 78.1 °F - 67.8 °F 71% 30.05 in 10.0 mi South 3.5 mph - N/A   Clear
2:55 AM 78.1 °F - 68.0 °F 71% 30.05 in 10.0 mi South 10.4 mph 16.1 mph N/A   Clear
3:15 AM 77.9 °F - 68.9 °F 74% 30.05 in 10.0 mi South 5.8 mph - N/A   Mostly Cloudy
3:35 AM 77.9 °F - 69.1 °F 74% 30.05 in 10.0 mi South 6.9 mph 16.1 mph N/A   Overcast
3:55 AM 77.9 °F - 68.9 °F 74% 30.03 in 10.0 mi South 5.8 mph - N/A   Mostly Cloudy
4:15 AM 77.5 °F - 68.5 °F 74% 30.03 in 10.0 mi South 3.5 mph - N/A   Scattered Clouds
4:35 AM 77.0 °F - 68.9 °F 76% 30.03 in 10.0 mi South 5.8 mph - N/A   Clear
4:55 AM 76.5 °F - 69.1 °F 78% 30.03 in 10.0 mi South 3.5 mph - N/A   Clear
5:15 AM 76.1 °F - 69.3 °F 79% 30.04 in 10.0 mi Calm Calm - N/A   Scattered Clouds
5:35 AM 75.4 °F - 69.4 °F 82% 30.06 in 10.0 mi Calm Calm - N/A   Scattered Clouds
5:55 AM 75.2 °F - 69.4 °F 82% 30.06 in 10.0 mi Calm Calm - N/A   Scattered Clouds
6:15 AM 74.7 °F - 69.4 °F 84% 30.07 in 10.0 mi Calm Calm - N/A   Scattered Clouds
6:35 AM 75.2 °F - 69.8 °F 83% 30.07 in 10.0 mi Calm Calm - N/A   Clear
6:55 AM 76.3 °F - 70.2 °F 81% 30.07 in 10.0 mi Calm Calm - N/A   Clear
7:15 AM 77.9 °F - 70.3 °F 77% 30.08 in 10.0 mi Calm Calm - N/A   Clear
7:35 AM 79.0 °F - 70.0 °F 74% 30.08 in 10.0 mi Calm Calm - N/A   Clear
7:55 AM 81.3 °F 85.0 °F 70.2 °F 69% 30.09 in 10.0 mi South 4.6 mph - N/A   Clear
8:15 AM 82.8 °F 86.7 °F 70.0 °F 65% 30.10 in 10.0 mi South 3.5 mph - N/A   Mostly Cloudy
8:35 AM 84.2 °F 88.4 °F 69.8 °F 62% 30.10 in 10.0 mi South 5.8 mph - N/A   Mostly Cloudy
8:55 AM 84.4 °F 88.2 °F 69.1 °F 60% 30.09 in 10.0 mi SW 6.9 mph - N/A   Mostly Cloudy
9:15 AM 86.0 °F 89.7 °F 68.9 °F 56% 30.09 in 10.0 mi South 8.1 mph - N/A   Scattered Clouds
9:35 AM 86.5 °F 90.7 °F 68.9 °F 56% 30.09 in 10.0 mi South 6.9 mph - N/A   Scattered Clouds
9:55 AM 86.2 °F 89.7 °F 68.4 °F 55% 30.09 in 10.0 mi South 6.9 mph - N/A   Scattered Clouds
10:15 AM 86.2 °F 89.4 °F 67.6 °F 54% 30.08 in 10.0 mi South 6.9 mph - N/A   Scattered Clouds
10:35 AM 87.1 °F 90.2 °F 67.6 °F 52% 30.08 in 10.0 mi South 4.6 mph - N/A   Scattered Clouds
10:55 AM 90.5 °F 93.8 °F 67.3 °F 46% 30.07 in 10.0 mi SSE 8.1 mph 18.4 mph N/A   Mostly Cloudy
11:15 AM 90.3 °F 92.6 °F 65.8 °F 44% 30.07 in 10.0 mi SE 4.6 mph 16.1 mph N/A   Scattered Clouds
11:35 AM 90.3 °F 93.0 °F 66.0 °F 45% 30.07 in 10.0 mi South 4.6 mph - N/A   Scattered Clouds
11:55 AM 92.1 °F 94.8 °F 66.0 °F 42% 30.06 in 10.0 mi South 5.8 mph - N/A   Mostly Cloudy
12:15 PM 92.3 °F 95.1 °F 66.2 °F 42% 30.05 in 10.0 mi SSE 3.5 mph - N/A   Mostly Cloudy
12:35 PM 93.2 °F 95.3 °F 64.9 °F 39% 30.03 in 10.0 mi SSE 9.2 mph - N/A   Scattered Clouds
12:55 PM 93.4 °F 95.2 °F 64.4 °F 38% 30.03 in 10.0 mi SSE 10.4 mph 18.4 mph N/A   Mostly Cloudy
1:15 PM 94.6 °F 97.3 °F 65.3 °F 38% 30.02 in 10.0 mi South 4.6 mph - N/A   Mostly Cloudy
1:35 PM 95.0 °F 97.4 °F 65.1 °F 37% 30.01 in 10.0 mi SSW 8.1 mph 18.4 mph N/A   Mostly Cloudy
1:55 PM 96.6 °F 98.7 °F 64.2 °F 34% 30.01 in 10.0 mi South 10.4 mph 16.1 mph N/A   Scattered Clouds
2:15 PM 96.6 °F 98.2 °F 63.5 °F 33% 30.00 in 10.0 mi South 11.5 mph 20.7 mph N/A   Scattered Clouds
2:35 PM 95.2 °F 96.3 °F 62.8 °F 34% 29.99 in 10.0 mi South 5.8 mph 17.3 mph N/A   Scattered Clouds
2:55 PM 95.9 °F 97.5 °F 63.3 °F 34% 29.99 in 10.0 mi South 11.5 mph 17.3 mph N/A   Scattered Clouds
3:15 PM 93.9 °F 95.2 °F 63.0 °F 36% 29.98 in 10.0 mi SE 4.6 mph - N/A   Scattered Clouds
3:35 PM 97.2 °F 98.6 °F 63.0 °F 32% 29.98 in 10.0 mi SSE 8.1 mph 16.1 mph N/A   Scattered Clouds
3:55 PM 97.7 °F 99.0 °F 62.6 °F 31% 29.97 in 10.0 mi SSE 6.9 mph - N/A   Mostly Cloudy
4:15 PM 97.2 °F 98.6 °F 62.8 °F 32% 29.97 in 10.0 mi South 10.4 mph 16.1 mph N/A   Mostly Cloudy
4:35 PM 95.9 °F 97.5 °F 63.3 °F 34% 29.97 in 10.0 mi ESE 5.8 mph - N/A   Scattered Clouds
4:55 PM 96.6 °F 98.2 °F 63.0 °F 33% 29.96 in 10.0 mi SE 9.2 mph - N/A   Clear
5:15 PM 96.8 °F 98.0 °F 62.4 °F 32% 29.95 in 10.0 mi SSE 6.9 mph - N/A   Clear
5:35 PM 95.7 °F 96.7 °F 62.2 °F 33% 29.95 in 10.0 mi SE 4.6 mph - N/A   Scattered Clouds
5:55 PM 96.1 °F 97.3 °F 62.2 °F 33% 29.95 in 10.0 mi SE 4.6 mph - N/A   Clear
6:15 PM 95.2 °F 96.3 °F 62.4 °F 34% 29.95 in 10.0 mi SE 8.1 mph - N/A   Clear
6:35 PM 94.3 °F 94.9 °F 62.2 °F 34% 29.94 in 10.0 mi SE 6.9 mph - N/A   Clear
6:55 PM 93.4 °F 93.9 °F 61.7 °F 35% 29.95 in 10.0 mi SSE 5.8 mph - N/A   Clear
7:15 PM 91.8 °F 92.2 °F 62.4 °F 37% 29.95 in 10.0 mi SE 4.6 mph - N/A   Clear
7:35 PM 90.0 °F 90.6 °F 62.6 °F 40% 29.95 in 10.0 mi Calm Calm - N/A   Clear
7:55 PM 88.3 °F 88.9 °F 62.8 °F 42% 29.96 in 10.0 mi Calm Calm - N/A   Clear
8:15 PM 87.3 °F 88.0 °F 63.0 °F 44% 29.96 in 10.0 mi SSE 3.5 mph - N/A   Clear
8:35 PM 86.9 °F 87.8 °F 63.0 °F 45% 29.97 in 10.0 mi SSE 3.5 mph - N/A   Clear
8:55 PM 86.7 °F 87.8 °F 63.5 °F 46% 29.98 in 10.0 mi SSE 5.8 mph - N/A   Clear
9:15 PM 87.8 °F 89.4 °F 64.4 °F 46% 29.99 in 10.0 mi SSE 5.8 mph - N/A   Clear
9:35 PM 87.1 °F 88.9 °F 64.9 °F 48% 30.00 in 10.0 mi SSE 8.1 mph - N/A   Clear
9:55 PM 87.3 °F 89.5 °F 66.2 °F 49% 30.00 in 10.0 mi South 15.0 mph 23.0 mph N/A   Clear
10:15 PM 86.9 °F 89.6 °F 66.9 °F 51% 30.00 in 10.0 mi South 17.3 mph 23.0 mph N/A   Clear
10:35 PM 86.0 °F 88.8 °F 67.1 °F 53% 30.01 in 10.0 mi South 10.4 mph 17.3 mph N/A   Clear
10:55 PM 85.3 °F 87.9 °F 67.1 °F 54% 30.02 in 10.0 mi South 10.4 mph 19.6 mph N/A   Clear
11:15 PM 84.4 °F 87.1 °F 67.3 °F 56% 30.02 in 10.0 mi South 8.1 mph - N/A   Clear
11:35 PM 83.8 °F 86.5 °F 67.1 °F 57% 30.02 in 10.0 mi South 9.2 mph 17.3 mph N/A   Clear
11:55 PM 83.3 °F 85.7 °F 66.7 °F 57% 30.02 in 10.0 mi South 8.1 mph 19.6 mph N/A   Clear